Погода в Почаеве

Россия / Белгородская область     50°38′43″N   35°32′49″E
темп.,
°C
ветер,
м/с
пор.,
м/с
влажн.,
%
обл.,
%
осадки,
мм/ч
давл.,
гПа
погр.,
м
25 июля, вс
вс2500:00+17всв22771 0.1 101724
03:00+16в22743 0.1 101820
06:00+15в237733 0.0 101954
09:00+22юв34533 0.0 1019453
12:00+26юв32362 0.0 10201813
15:00+28в113212 0.0 10192495
18:00+27св113482 0.0 10192416
21:00+23вюв3743100 0.0 1020164
26 июля, пн
пн2600:00+20юв374785 0.0 1022196
03:00+18юв355564 0.0 1022110
06:00+17ююв236039 0.0 102371
09:00+23юв34435 0.0 1023448
12:00+28юв33335 0.0 10222119
15:00+28вюв2234100 0.0 10212303
18:00+26св344260 0.0 1021305
21:00+21в48520 0.0 1022129
27 июля, вт
вт2700:00+19вюв34513 0.0 102255
03:00+18вюв33541 0.0 102342
06:00+17вюв35560 0.0 102392
09:00+24вюв35415 0.0 1022460
12:00+29вюв443114 0.0 10211989
15:00+30вюв322855 0.0 10202878
18:00+29в33305 0.0 10192123
21:00+23в484896 0.0 1019121
28 июля, ср
ср2800:00+21юв394971 0.0 1020173
03:00+19юв3754100 0.0 1019119
06:00+19ююв49565 0.0 1018176
09:00+26ю574068 0.0 1017494
12:00+31ююз6727100 0.0 10162644
15:00+25з4652100 0.0 1016398
18:00+25ю4755100 0.1 1014330
21:00+19ю41189100 1.6 1014239
29 июля, чт
чт2900:00+19ююз5119013 1.9 1012260
03:00+18зюз37915 1.9 1011133
06:00+18зюз24915 0.0 101186
09:00+24з227128 0.0 1010376
12:00+29зюз344582 0.3 10101816
15:00+29зсз454561 0.3 10081400
18:00+30зсз46432 0.0 10071346
21:00+20с61291100 2.5 1008351